Tracking 27380 objects as of 6-Jun-2023
HD Live streaming from Space Station
objects crossing your sky now

OPS 4682 DEB

Track OPS 4682 DEB now!
10-day predictions


NORAD ID: 29059
Int'l Code: 1965-027BJ
Perigee: 1,271.9 km
Apogee: 1,316.1 km
Inclination: 90.2 °
Period: 111.3 minutes
Semi major axis: 7665 km
RCS: 0.0242 m2 (small)
Launch date: April 3, 1965
Source: United States (US)
Launch site: AIR FORCE WESTERN TEST RANGE (AFWTR)

Note: This is SATELLITE DEBRIS
Your satellite tracking list
Your tracking list is empty




NASA's NSSDC Master Catalog

Two Line Element Set (TLE):
1 29059U 65027BJ  23157.46380203  .00000070  00000-0  22894-3 0  9994
2 29059  90.2487 341.9764 0028818 243.6060 132.1686 12.93697654 12461
Source of the keplerian elements: AFSPC